Year,Month,Day,Hour,Minute,Value (Times are PST for windspeed in km/hr)
2018,03,23,00,00,0.00
2018,03,23,00,01,0.00
2018,03,23,00,02,0.00
2018,03,23,00,03,0.00
2018,03,23,00,04,0.00
2018,03,23,00,05,0.00
2018,03,23,00,06,0.00
2018,03,23,00,07,0.00
2018,03,23,00,08,0.00
2018,03,23,00,09,0.00
2018,03,23,00,10,0.00
2018,03,23,00,11,0.00
2018,03,23,00,12,0.00
2018,03,23,00,13,0.00
2018,03,23,00,14,0.00
2018,03,23,00,15,0.00
2018,03,23,00,16,0.00
2018,03,23,00,17,0.00
2018,03,23,00,18,0.00
2018,03,23,00,19,0.00
2018,03,23,00,20,0.00
2018,03,23,00,21,0.00
2018,03,23,00,22,0.00
2018,03,23,00,23,0.00
2018,03,23,00,24,0.00
2018,03,23,00,25,0.00
2018,03,23,00,26,0.20
2018,03,23,00,27,1.40
2018,03,23,00,28,1.40
2018,03,23,00,29,2.10
2018,03,23,00,30,2.60
2018,03,23,00,31,3.50
2018,03,23,00,32,3.10
2018,03,23,00,33,4.30
2018,03,23,00,34,4.30
2018,03,23,00,35,4.40
2018,03,23,00,36,3.60
2018,03,23,00,37,3.40
2018,03,23,00,38,1.40
2018,03,23,00,39,4.70
2018,03,23,00,40,6.20
2018,03,23,00,41,5.90
2018,03,23,00,42,6.80
2018,03,23,00,43,4.20
2018,03,23,00,44,1.40
2018,03,23,00,45,0.00
2018,03,23,00,46,0.00
2018,03,23,00,47,0.00
2018,03,23,00,48,0.00
2018,03,23,00,49,0.00
2018,03,23,00,50,0.00
2018,03,23,00,51,0.00
2018,03,23,00,52,0.00
2018,03,23,00,53,0.00
2018,03,23,00,54,0.00
2018,03,23,00,55,0.00
2018,03,23,00,56,0.00
2018,03,23,00,57,0.00
2018,03,23,00,58,0.00
2018,03,23,00,59,0.00
2018,03,23,01,00,0.00
2018,03,23,01,01,0.00
2018,03,23,01,02,0.00
2018,03,23,01,03,0.00
2018,03,23,01,04,0.00
2018,03,23,01,05,0.30
2018,03,23,01,06,0.10
2018,03,23,01,07,0.00
2018,03,23,01,08,0.30
2018,03,23,01,09,0.30
2018,03,23,01,10,0.10
2018,03,23,01,11,0.00
2018,03,23,01,12,0.00
2018,03,23,01,13,0.00
2018,03,23,01,14,0.00
2018,03,23,01,15,0.00
2018,03,23,01,16,0.00
2018,03,23,01,17,0.00
2018,03,23,01,18,0.00
2018,03,23,01,19,0.00
2018,03,23,01,20,0.00
2018,03,23,01,21,0.00
2018,03,23,01,22,0.00
2018,03,23,01,23,0.00
2018,03,23,01,24,0.00
2018,03,23,01,25,0.00
2018,03,23,01,26,0.00
2018,03,23,01,27,0.00
2018,03,23,01,28,0.00
2018,03,23,01,29,0.00
2018,03,23,01,30,0.00
2018,03,23,01,31,0.00
2018,03,23,01,32,0.00
2018,03,23,01,33,0.00
2018,03,23,01,34,0.00
2018,03,23,01,35,0.00
2018,03,23,01,36,0.00
2018,03,23,01,37,0.00
2018,03,23,01,38,0.00
2018,03,23,01,39,0.00
2018,03,23,01,40,0.00
2018,03,23,01,41,0.00
2018,03,23,01,42,0.00
2018,03,23,01,43,0.00
2018,03,23,01,44,0.00
2018,03,23,01,45,0.00
2018,03,23,01,46,0.00
2018,03,23,01,47,0.00
2018,03,23,01,48,1.30
2018,03,23,01,49,2.20
2018,03,23,01,50,0.70
2018,03,23,01,51,0.00
2018,03,23,01,52,0.00
2018,03,23,01,53,2.50
2018,03,23,01,54,2.50
2018,03,23,01,55,0.00
2018,03,23,01,56,0.00
2018,03,23,01,57,0.00
2018,03,23,01,58,0.00
2018,03,23,01,59,0.00
2018,03,23,02,00,0.00
2018,03,23,02,01,0.00
2018,03,23,02,02,0.00
2018,03,23,02,03,0.00
2018,03,23,02,04,0.00
2018,03,23,02,05,0.00
2018,03,23,02,06,0.00
2018,03,23,02,07,0.00
2018,03,23,02,08,0.00
2018,03,23,02,09,0.00
2018,03,23,02,10,0.00
2018,03,23,02,11,0.00
2018,03,23,02,12,0.00
2018,03,23,02,13,0.00
2018,03,23,02,14,0.00
2018,03,23,02,15,0.00
2018,03,23,02,16,0.00
2018,03,23,02,17,0.00
2018,03,23,02,18,0.00
2018,03,23,02,19,0.00
2018,03,23,02,20,0.00
2018,03,23,02,21,0.00
2018,03,23,02,22,0.00
2018,03,23,02,23,0.00
2018,03,23,02,24,0.00
2018,03,23,02,25,0.00
2018,03,23,02,26,0.00
2018,03,23,02,27,0.00
2018,03,23,02,28,1.50
2018,03,23,02,29,0.20
2018,03,23,02,30,0.00
2018,03,23,02,31,0.00
2018,03,23,02,32,0.00
2018,03,23,02,33,0.90
2018,03,23,02,34,1.50
2018,03,23,02,35,0.00
2018,03,23,02,36,0.10
2018,03,23,02,37,0.00
2018,03,23,02,38,0.00
2018,03,23,02,39,0.00
2018,03,23,02,40,0.00
2018,03,23,02,41,0.00
2018,03,23,02,42,0.00
2018,03,23,02,43,0.00
2018,03,23,02,44,0.00
2018,03,23,02,45,0.00
2018,03,23,02,46,0.00
2018,03,23,02,47,0.90
2018,03,23,02,48,1.60
2018,03,23,02,49,1.50
2018,03,23,02,50,0.00
2018,03,23,02,51,0.60
2018,03,23,02,52,0.70
2018,03,23,02,53,0.10
2018,03,23,02,54,0.00
2018,03,23,02,55,0.00
2018,03,23,02,56,0.00
2018,03,23,02,57,0.10
2018,03,23,02,58,0.10
2018,03,23,02,59,0.00
2018,03,23,03,00,0.00
2018,03,23,03,01,0.00
2018,03,23,03,02,0.00
2018,03,23,03,03,1.40
2018,03,23,03,04,1.60
2018,03,23,03,05,0.10
2018,03,23,03,06,0.00
2018,03,23,03,07,0.00
2018,03,23,03,08,0.00
2018,03,23,03,09,0.70
2018,03,23,03,10,0.70
2018,03,23,03,11,0.00
2018,03,23,03,12,0.00
2018,03,23,03,13,0.00
2018,03,23,03,14,0.00
2018,03,23,03,15,0.00
2018,03,23,03,16,0.00
2018,03,23,03,17,0.00
2018,03,23,03,18,0.00
2018,03,23,03,19,0.00
2018,03,23,03,20,0.00
2018,03,23,03,21,0.00
2018,03,23,03,22,0.00
2018,03,23,03,23,0.00
2018,03,23,03,24,0.00
2018,03,23,03,25,0.00
2018,03,23,03,26,0.00
2018,03,23,03,27,0.00
2018,03,23,03,28,0.10
2018,03,23,03,29,0.00
2018,03,23,03,30,0.00
2018,03,23,03,31,0.00
2018,03,23,03,32,0.00
2018,03,23,03,33,0.00
2018,03,23,03,34,0.00
2018,03,23,03,35,0.00
2018,03,23,03,36,0.00
2018,03,23,03,37,0.00
2018,03,23,03,38,0.00
2018,03,23,03,39,0.00
2018,03,23,03,40,0.00
2018,03,23,03,41,0.00
2018,03,23,03,42,0.00
2018,03,23,03,43,0.00
2018,03,23,03,44,0.00
2018,03,23,03,45,0.00
2018,03,23,03,46,0.00
2018,03,23,03,47,0.00
2018,03,23,03,48,0.00
2018,03,23,03,49,0.00
2018,03,23,03,50,0.00
2018,03,23,03,51,0.00
2018,03,23,03,52,0.00
2018,03,23,03,53,0.00
2018,03,23,03,54,0.00
2018,03,23,03,55,0.00
2018,03,23,03,56,0.00
2018,03,23,03,57,0.00
2018,03,23,03,58,0.00
2018,03,23,03,59,1.30
2018,03,23,04,00,1.40
2018,03,23,04,01,4.70
2018,03,23,04,02,4.00
2018,03,23,04,03,0.70
2018,03,23,04,04,0.00
2018,03,23,04,05,0.00
2018,03,23,04,06,0.00
2018,03,23,04,07,0.00
2018,03,23,04,08,0.50
2018,03,23,04,09,3.50
2018,03,23,04,10,1.90
2018,03,23,04,11,2.20
2018,03,23,04,12,1.40
2018,03,23,04,13,2.60
2018,03,23,04,14,1.40
2018,03,23,04,15,2.10
2018,03,23,04,16,3.90
2018,03,23,04,17,3.50
2018,03,23,04,18,3.80
2018,03,23,04,19,4.20
2018,03,23,04,20,3.10
2018,03,23,04,21,5.10
2018,03,23,04,22,0.50
2018,03,23,04,23,0.40
2018,03,23,04,24,2.20
2018,03,23,04,25,0.90
2018,03,23,04,26,4.40
2018,03,23,04,27,3.20
2018,03,23,04,28,2.30
2018,03,23,04,29,4.20
2018,03,23,04,30,3.10
2018,03,23,04,31,2.50
2018,03,23,04,32,2.90
2018,03,23,04,33,3.60
2018,03,23,04,34,4.60
2018,03,23,04,35,0.50
2018,03,23,04,36,0.20
2018,03,23,04,37,0.00
2018,03,23,04,38,4.90
2018,03,23,04,39,6.60
2018,03,23,04,40,8.10
2018,03,23,04,41,7.60
2018,03,23,04,42,4.80
2018,03,23,04,43,4.60
2018,03,23,04,44,5.20
2018,03,23,04,45,4.30
2018,03,23,04,46,6.60
2018,03,23,04,47,9.30
2018,03,23,04,48,5.40
2018,03,23,04,49,7.20
2018,03,23,04,50,8.40
2018,03,23,04,51,9.30
2018,03,23,04,52,6.40
2018,03,23,04,53,3.90
2018,03,23,04,54,9.30
2018,03,23,04,55,6.80
2018,03,23,04,56,7.70
2018,03,23,04,57,2.90
2018,03,23,04,58,5.80
2018,03,23,04,59,7.00
2018,03,23,05,00,7.30
2018,03,23,05,01,8.80
2018,03,23,05,02,6.70
2018,03,23,05,03,7.40
2018,03,23,05,04,10.50
2018,03,23,05,05,5.70
2018,03,23,05,06,7.10
2018,03,23,05,07,6.50
2018,03,23,05,08,3.40
2018,03,23,05,09,4.40
2018,03,23,05,10,0.80
2018,03,23,05,11,0.00
2018,03,23,05,12,2.30
2018,03,23,05,13,3.00
2018,03,23,05,14,0.00
2018,03,23,05,15,2.30
2018,03,23,05,16,2.10
2018,03,23,05,17,3.10
2018,03,23,05,18,2.80
2018,03,23,05,19,1.60
2018,03,23,05,20,5.60
2018,03,23,05,21,3.70
2018,03,23,05,22,2.90
2018,03,23,05,23,3.20
2018,03,23,05,24,0.90
2018,03,23,05,25,4.10
2018,03,23,05,26,0.70
2018,03,23,05,27,3.60
2018,03,23,05,28,3.10
2018,03,23,05,29,2.70
2018,03,23,05,30,1.90
2018,03,23,05,31,4.30
2018,03,23,05,32,2.50
2018,03,23,05,33,0.60
2018,03,23,05,34,4.90
2018,03,23,05,35,2.00
2018,03,23,05,36,0.00
2018,03,23,05,37,0.00
2018,03,23,05,38,0.00
2018,03,23,05,39,0.10
2018,03,23,05,40,0.00
2018,03,23,05,41,0.00
2018,03,23,05,42,3.00
2018,03,23,05,43,0.10
2018,03,23,05,44,0.00
2018,03,23,05,45,0.00
2018,03,23,05,46,4.20
2018,03,23,05,47,4.50
2018,03,23,05,48,3.90
2018,03,23,05,49,1.00
2018,03,23,05,50,0.40
2018,03,23,05,51,0.00
2018,03,23,05,52,0.00
2018,03,23,05,53,0.00
2018,03,23,05,54,0.00
2018,03,23,05,55,0.00
2018,03,23,05,56,0.00
2018,03,23,05,57,0.00
2018,03,23,05,58,0.00
2018,03,23,05,59,0.00
2018,03,23,06,00,0.00
2018,03,23,06,01,0.00
2018,03,23,06,02,0.00
2018,03,23,06,03,0.00
2018,03,23,06,04,0.00
2018,03,23,06,05,0.00
2018,03,23,06,06,0.00
2018,03,23,06,07,0.00
2018,03,23,06,08,0.00
2018,03,23,06,09,0.00
2018,03,23,06,10,0.00
2018,03,23,06,11,0.00
2018,03,23,06,12,0.00
2018,03,23,06,13,0.00
2018,03,23,06,14,0.00
2018,03,23,06,15,0.00
2018,03,23,06,16,0.00
2018,03,23,06,17,0.00
2018,03,23,06,18,0.00
2018,03,23,06,19,0.00
2018,03,23,06,20,0.00
2018,03,23,06,21,0.00
2018,03,23,06,22,0.00
2018,03,23,06,23,0.00
2018,03,23,06,24,0.00
2018,03,23,06,25,0.00
2018,03,23,06,26,0.00
2018,03,23,06,27,0.00
2018,03,23,06,28,0.00
2018,03,23,06,29,0.00
2018,03,23,06,30,0.00
2018,03,23,06,31,0.00
2018,03,23,06,32,0.00
2018,03,23,06,33,0.00
2018,03,23,06,34,0.00
2018,03,23,06,35,0.00
2018,03,23,06,36,0.00
2018,03,23,06,37,0.00
2018,03,23,06,38,1.70
2018,03,23,06,39,1.10
2018,03,23,06,40,2.00
2018,03,23,06,41,0.90
2018,03,23,06,42,1.00
2018,03,23,06,43,1.00
2018,03,23,06,44,1.50
2018,03,23,06,45,2.30
2018,03,23,06,46,4.70
2018,03,23,06,47,5.20
2018,03,23,06,48,4.40
2018,03,23,06,49,5.10
2018,03,23,06,50,7.40
2018,03,23,06,51,7.40
2018,03,23,06,52,7.40
2018,03,23,06,53,9.40
2018,03,23,06,54,6.50
2018,03,23,06,55,7.80
2018,03,23,06,56,7.20
2018,03,23,06,57,7.10
2018,03,23,06,58,6.70
2018,03,23,06,59,8.50
2018,03,23,07,00,8.20
2018,03,23,07,01,5.20
2018,03,23,07,02,5.20
2018,03,23,07,03,4.70
2018,03,23,07,04,4.10
2018,03,23,07,05,3.20
2018,03,23,07,06,3.50
2018,03,23,07,07,4.20
2018,03,23,07,08,3.50
2018,03,23,07,09,2.70
2018,03,23,07,10,1.00
2018,03,23,07,11,3.30
2018,03,23,07,12,1.70
2018,03,23,07,13,0.20
2018,03,23,07,14,1.40
2018,03,23,07,15,0.00
2018,03,23,07,16,1.90
2018,03,23,07,17,2.90
2018,03,23,07,18,3.10
2018,03,23,07,19,2.60
2018,03,23,07,20,2.20
2018,03,23,07,21,0.40
2018,03,23,07,22,0.40
2018,03,23,07,23,2.90
2018,03,23,07,24,1.70
2018,03,23,07,25,1.50
2018,03,23,07,26,0.60
2018,03,23,07,27,1.40
2018,03,23,07,28,0.00
2018,03,23,07,29,0.00
2018,03,23,07,30,0.70
2018,03,23,07,31,1.20
2018,03,23,07,32,3.90
2018,03,23,07,33,4.30
2018,03,23,07,34,3.40
2018,03,23,07,35,4.30
2018,03,23,07,36,3.80
2018,03,23,07,37,4.90
2018,03,23,07,38,4.70
2018,03,23,07,39,5.20
2018,03,23,07,40,4.30
2018,03,23,07,41,4.90
2018,03,23,07,42,6.90
2018,03,23,07,43,6.70
2018,03,23,07,44,6.80
2018,03,23,07,45,5.80
2018,03,23,07,46,6.60
2018,03,23,07,47,5.30
2018,03,23,07,48,3.60
2018,03,23,07,49,8.20
2018,03,23,07,50,6.30
2018,03,23,07,51,6.10
2018,03,23,07,52,6.70
2018,03,23,07,53,5.90
2018,03,23,07,54,6.70
2018,03,23,07,55,6.60
2018,03,23,07,56,6.50
2018,03,23,07,57,5.90
2018,03,23,07,58,8.10
2018,03,23,07,59,6.80
2018,03,23,08,00,6.00
2018,03,23,08,01,8.50
2018,03,23,08,02,7.60
2018,03,23,08,03,8.50
2018,03,23,08,04,10.50
2018,03,23,08,05,8.20
2018,03,23,08,06,7.30
2018,03,23,08,07,6.80
2018,03,23,08,08,8.60
2018,03,23,08,09,10.30
2018,03,23,08,10,6.20
2018,03,23,08,11,6.70
2018,03,23,08,12,6.60
2018,03,23,08,13,10.80
2018,03,23,08,14,9.70
2018,03,23,08,15,7.80
2018,03,23,08,16,8.40
2018,03,23,08,17,7.70
2018,03,23,08,18,7.10
2018,03,23,08,19,7.80
2018,03,23,08,20,7.30
2018,03,23,08,21,8.00
2018,03,23,08,22,6.00
2018,03,23,08,23,6.90
2018,03,23,08,24,7.30
2018,03,23,08,25,9.80
2018,03,23,08,26,10.20
2018,03,23,08,27,8.10
2018,03,23,08,28,7.50
2018,03,23,08,29,8.10
2018,03,23,08,30,8.40
2018,03,23,08,31,8.40
2018,03,23,08,32,7.20
2018,03,23,08,33,5.60
2018,03,23,08,34,7.50
2018,03,23,08,35,6.70
2018,03,23,08,36,7.90
2018,03,23,08,37,8.20
2018,03,23,08,38,5.30
2018,03,23,08,39,6.40
2018,03,23,08,40,6.60
2018,03,23,08,41,5.60
2018,03,23,08,42,6.90
2018,03,23,08,43,6.40
2018,03,23,08,44,2.60
2018,03,23,08,45,4.50
2018,03,23,08,46,5.00
2018,03,23,08,47,4.60
2018,03,23,08,48,2.60
2018,03,23,08,49,6.30
2018,03,23,08,50,5.10
2018,03,23,08,51,4.60
2018,03,23,08,52,2.50
2018,03,23,08,53,1.40
2018,03,23,08,54,3.90
2018,03,23,08,55,5.30
2018,03,23,08,56,5.10
2018,03,23,08,57,5.60
2018,03,23,08,58,6.00
2018,03,23,08,59,7.00
2018,03,23,09,00,6.50
2018,03,23,09,01,6.80
2018,03,23,09,02,6.20
2018,03,23,09,03,4.50
2018,03,23,09,04,2.40
2018,03,23,09,05,0.60
2018,03,23,09,06,2.90
2018,03,23,09,07,5.00
2018,03,23,09,08,4.60
2018,03,23,09,09,3.70
2018,03,23,09,10,9.40
2018,03,23,09,11,7.30
2018,03,23,09,12,4.30
2018,03,23,09,13,6.40
2018,03,23,09,14,5.20
2018,03,23,09,15,5.80
2018,03,23,09,16,4.30
2018,03,23,09,17,1.90
2018,03,23,09,18,1.70
2018,03,23,09,19,1.60
2018,03,23,09,20,3.70
2018,03,23,09,21,3.10
2018,03,23,09,22,3.90
2018,03,23,09,23,4.90
2018,03,23,09,24,4.40
2018,03,23,09,25,4.90
2018,03,23,09,26,4.70
2018,03,23,09,27,3.60
2018,03,23,09,28,5.60
2018,03,23,09,29,4.50
2018,03,23,09,30,3.60
2018,03,23,09,31,3.60
2018,03,23,09,32,2.10
2018,03,23,09,33,2.00
2018,03,23,09,34,3.70
2018,03,23,09,35,4.70
2018,03,23,09,36,3.90
2018,03,23,09,37,4.90
2018,03,23,09,38,5.50
2018,03,23,09,39,5.10
2018,03,23,09,40,4.70
2018,03,23,09,41,5.00
2018,03,23,09,42,6.80
2018,03,23,09,43,5.90
2018,03,23,09,44,4.20
2018,03,23,09,45,5.90
2018,03,23,09,46,5.00
2018,03,23,09,47,4.40
2018,03,23,09,48,2.40
2018,03,23,09,49,5.50
2018,03,23,09,50,3.50
2018,03,23,09,51,3.80
2018,03,23,09,52,4.00
2018,03,23,09,53,5.00
2018,03,23,09,54,3.90
2018,03,23,09,55,4.10
2018,03,23,09,56,3.40
2018,03,23,09,57,4.20
2018,03,23,09,58,3.20
2018,03,23,09,59,1.90
2018,03,23,10,00,2.80
2018,03,23,10,01,1.20
2018,03,23,10,02,2.00
2018,03,23,10,03,1.90
2018,03,23,10,04,3.00
2018,03,23,10,05,4.90
2018,03,23,10,06,2.50
2018,03,23,10,07,1.10
2018,03,23,10,08,3.90
2018,03,23,10,09,4.40
2018,03,23,10,10,3.10
2018,03,23,10,11,2.80
2018,03,23,10,12,3.50
2018,03,23,10,13,2.80
2018,03,23,10,14,2.80
2018,03,23,10,15,4.90
2018,03,23,10,16,5.40
2018,03,23,10,17,3.00
2018,03,23,10,18,5.10
2018,03,23,10,19,4.30
2018,03,23,10,20,3.00
2018,03,23,10,21,2.90
2018,03,23,10,22,3.10
2018,03,23,10,23,3.10
2018,03,23,10,24,3.70
2018,03,23,10,25,3.40
2018,03,23,10,26,2.60
2018,03,23,10,27,4.30
2018,03,23,10,28,4.30
2018,03,23,10,29,1.50
2018,03,23,10,30,3.50
2018,03,23,10,31,3.00
2018,03,23,10,32,2.90
2018,03,23,10,33,1.40
2018,03,23,10,34,1.50
2018,03,23,10,35,1.60
2018,03,23,10,36,0.40
2018,03,23,10,37,0.20
2018,03,23,10,38,0.00
2018,03,23,10,39,0.00
2018,03,23,10,40,0.10
2018,03,23,10,41,2.70
2018,03,23,10,42,1.80
2018,03,23,10,43,0.00
2018,03,23,10,44,0.20
2018,03,23,10,45,0.10
2018,03,23,10,46,0.00
2018,03,23,10,47,1.80
2018,03,23,10,48,0.20
2018,03,23,10,49,0.60
2018,03,23,10,50,0.00
2018,03,23,10,51,2.90
2018,03,23,10,52,2.10
2018,03,23,10,53,0.20
2018,03,23,10,54,0.40
2018,03,23,10,55,1.20
2018,03,23,10,56,1.00
2018,03,23,10,57,2.10
2018,03,23,10,58,0.70
2018,03,23,10,59,3.20
2018,03,23,11,00,4.10
2018,03,23,11,01,3.80
2018,03,23,11,02,1.70
2018,03,23,11,03,3.30
2018,03,23,11,04,4.40
2018,03,23,11,05,1.10
2018,03,23,11,06,2.70
2018,03,23,11,07,6.80
2018,03,23,11,08,5.10
2018,03,23,11,09,5.00
2018,03,23,11,10,5.00
2018,03,23,11,11,4.30
2018,03,23,11,12,4.60
2018,03,23,11,13,6.00
2018,03,23,11,14,5.70
2018,03,23,11,15,5.50
2018,03,23,11,16,4.10
2018,03,23,11,17,0.80
2018,03,23,11,18,3.00
2018,03,23,11,19,6.50
2018,03,23,11,20,5.70
2018,03,23,11,21,4.40
2018,03,23,11,22,4.80
2018,03,23,11,23,3.50
2018,03,23,11,24,1.80
2018,03,23,11,25,0.00
2018,03,23,11,26,1.50
2018,03,23,11,27,5.30
2018,03,23,11,28,6.70
2018,03,23,11,29,7.70
2018,03,23,11,30,7.40
2018,03,23,11,31,6.30
2018,03,23,11,32,3.00
2018,03,23,11,33,3.90
2018,03,23,11,34,4.30
2018,03,23,11,35,9.50
2018,03,23,11,36,8.80
2018,03,23,11,37,8.00
2018,03,23,11,38,4.60
2018,03,23,11,39,6.00
2018,03,23,11,40,8.00
2018,03,23,11,41,9.90
2018,03,23,11,42,7.90
2018,03,23,11,43,5.30
2018,03,23,11,44,7.10
2018,03,23,11,45,5.40
2018,03,23,11,46,9.70
2018,03,23,11,47,6.70
2018,03,23,11,48,5.40
2018,03,23,11,49,6.30
2018,03,23,11,50,14.50
2018,03,23,11,51,10.40
2018,03,23,11,52,10.20
2018,03,23,11,53,5.10
2018,03,23,11,54,6.10
2018,03,23,11,55,6.30
2018,03,23,11,56,10.00
2018,03,23,11,57,13.00
2018,03,23,11,58,12.90
2018,03,23,11,59,12.90
2018,03,23,12,00,12.90
2018,03,23,12,01,12.30
2018,03,23,12,02,11.00
2018,03,23,12,03,12.00
2018,03,23,12,04,9.40
2018,03,23,12,05,7.50
2018,03,23,12,06,5.70
2018,03,23,12,07,12.20
2018,03,23,12,08,9.20
2018,03,23,12,09,9.00
2018,03,23,12,10,11.30
2018,03,23,12,11,5.10
2018,03,23,12,12,6.50
2018,03,23,12,13,13.00
2018,03,23,12,14,8.60
2018,03,23,12,15,7.00
2018,03,23,12,16,9.90
2018,03,23,12,17,17.70
2018,03,23,12,18,13.80
2018,03,23,12,19,11.30
2018,03,23,12,20,16.00
2018,03,23,12,21,16.30
2018,03,23,12,22,18.10
2018,03,23,12,23,12.50
2018,03,23,12,24,13.70
2018,03,23,12,25,17.50
2018,03,23,12,26,17.90
2018,03,23,12,27,18.70
2018,03,23,12,28,11.50
2018,03,23,12,29,15.80
2018,03,23,12,30,18.00
2018,03,23,12,31,16.20
2018,03,23,12,32,13.00
2018,03,23,12,33,20.30
2018,03,23,12,34,14.70
2018,03,23,12,35,13.50
2018,03,23,12,36,12.20
2018,03,23,12,37,14.20
2018,03,23,12,38,13.30
2018,03,23,12,39,10.50
2018,03,23,12,40,13.50
2018,03,23,12,41,15.40
2018,03,23,12,42,14.20
2018,03,23,12,43,13.40
2018,03,23,12,44,13.00
2018,03,23,12,45,9.90
2018,03,23,12,46,11.00
2018,03,23,12,47,9.80
2018,03,23,12,48,15.90
2018,03,23,12,49,14.80
2018,03,23,12,50,17.00
2018,03,23,12,51,15.10
2018,03,23,12,52,14.20
2018,03,23,12,53,16.80
2018,03,23,12,54,14.10
2018,03,23,12,55,11.50
2018,03,23,12,56,18.30
2018,03,23,12,57,17.00
2018,03,23,12,58,14.80
2018,03,23,12,59,17.20
2018,03,23,13,00,15.70
2018,03,23,13,01,22.00
2018,03,23,13,02,16.60
2018,03,23,13,03,11.50
2018,03,23,13,04,10.60
2018,03,23,13,05,17.00
2018,03,23,13,06,12.80
2018,03,23,13,07,12.60
2018,03,23,13,08,15.60
2018,03,23,13,09,20.20
2018,03,23,13,10,14.20
2018,03,23,13,11,15.80
2018,03,23,13,12,16.30
2018,03,23,13,13,8.10
2018,03,23,13,14,10.70
2018,03,23,13,15,7.70
2018,03,23,13,16,8.30
2018,03,23,13,17,6.00
2018,03,23,13,18,13.90
2018,03,23,13,19,13.00
2018,03,23,13,20,12.50
2018,03,23,13,21,10.40
2018,03,23,13,22,15.60
2018,03,23,13,23,10.70
2018,03,23,13,24,19.10
2018,03,23,13,25,13.20
2018,03,23,13,26,16.20
2018,03,23,13,27,17.30
2018,03,23,13,28,19.30
2018,03,23,13,29,19.20
2018,03,23,13,30,16.70
2018,03,23,13,31,21.00
2018,03,23,13,32,17.10
2018,03,23,13,33,14.30
2018,03,23,13,34,15.90
2018,03,23,13,35,15.00
2018,03,23,13,36,18.70
2018,03,23,13,37,16.60
2018,03,23,13,38,14.20
2018,03,23,13,39,11.70
2018,03,23,13,40,11.10
2018,03,23,13,41,15.20
2018,03,23,13,42,18.30
2018,03,23,13,43,19.40
2018,03,23,13,44,16.50
2018,03,23,13,45,16.00
2018,03,23,13,46,10.40
2018,03,23,13,47,16.90
2018,03,23,13,48,14.20
2018,03,23,13,49,17.60
2018,03,23,13,50,15.40
2018,03,23,13,51,9.60
2018,03,23,13,52,13.40
2018,03,23,13,53,10.10
2018,03,23,13,54,12.80
2018,03,23,13,55,15.20
2018,03,23,13,56,15.60
2018,03,23,13,57,18.60
2018,03,23,13,58,11.80
2018,03,23,13,59,13.10
2018,03,23,14,00,17.10
2018,03,23,14,01,18.10
2018,03,23,14,02,16.70
2018,03,23,14,03,18.90
2018,03,23,14,04,13.30
2018,03,23,14,05,12.90
2018,03,23,14,06,13.60
2018,03,23,14,07,9.20
2018,03,23,14,08,12.80
2018,03,23,14,09,12.30
2018,03,23,14,10,13.50
2018,03,23,14,11,19.10
2018,03,23,14,12,17.20
2018,03,23,14,13,9.60
2018,03,23,14,14,9.10
2018,03,23,14,15,6.40
2018,03,23,14,16,10.00
2018,03,23,14,17,14.80
2018,03,23,14,18,10.30
2018,03,23,14,19,11.70
2018,03,23,14,20,8.10
2018,03,23,14,21,11.00
2018,03,23,14,22,13.80
2018,03,23,14,23,15.10
2018,03,23,14,24,15.30
2018,03,23,14,25,18.20
2018,03,23,14,26,14.00
2018,03,23,14,27,12.80
2018,03,23,14,28,14.30
2018,03,23,14,29,13.90
2018,03,23,14,30,11.80
2018,03,23,14,31,5.30
2018,03,23,14,32,10.80
2018,03,23,14,33,13.60
2018,03,23,14,34,15.60
2018,03,23,14,35,16.50
2018,03,23,14,36,16.30
2018,03,23,14,37,14.30
2018,03,23,14,38,20.00
2018,03,23,14,39,16.20
2018,03,23,14,40,16.70
2018,03,23,14,41,19.10
2018,03,23,14,42,20.30
2018,03,23,14,43,14.70
2018,03,23,14,44,16.40
2018,03,23,14,45,12.60
2018,03,23,14,46,13.90
2018,03,23,14,47,18.80
2018,03,23,14,48,19.60
2018,03,23,14,49,16.30
2018,03,23,14,50,16.50
2018,03,23,14,51,9.20
2018,03,23,14,52,13.70
2018,03,23,14,53,13.60
2018,03,23,14,54,13.30
2018,03,23,14,55,12.00
2018,03,23,14,56,12.70
2018,03,23,14,57,17.90
2018,03,23,14,58,14.50
2018,03,23,14,59,13.10
2018,03,23,15,00,11.20
2018,03,23,15,01,13.00
2018,03,23,15,02,16.20
2018,03,23,15,03,11.50
2018,03,23,15,04,9.50
2018,03,23,15,05,12.30
2018,03,23,15,06,13.40
2018,03,23,15,07,12.80
2018,03,23,15,08,11.60
2018,03,23,15,09,13.40
2018,03,23,15,10,15.10
2018,03,23,15,11,14.50
2018,03,23,15,12,16.80
2018,03,23,15,13,16.20
2018,03,23,15,14,17.20
2018,03,23,15,15,23.10
2018,03,23,15,16,15.90
2018,03,23,15,17,9.80
2018,03,23,15,18,17.10
2018,03,23,15,19,17.40
2018,03,23,15,20,14.90
2018,03,23,15,21,13.70
2018,03,23,15,22,14.10
2018,03,23,15,23,16.50
2018,03,23,15,24,9.50
2018,03,23,15,25,7.60
2018,03,23,15,26,9.00
2018,03,23,15,27,4.90
2018,03,23,15,28,6.20
2018,03,23,15,29,6.30
2018,03,23,15,30,5.70
2018,03,23,15,31,10.40
2018,03,23,15,32,14.10
2018,03,23,15,33,12.40
2018,03,23,15,34,9.90
2018,03,23,15,35,13.70
2018,03,23,15,36,13.80
2018,03,23,15,37,15.40
2018,03,23,15,38,16.10
2018,03,23,15,39,13.10
2018,03,23,15,40,12.30
2018,03,23,15,41,14.30
2018,03,23,15,42,17.90
2018,03,23,15,43,15.40
2018,03,23,15,44,11.30
2018,03,23,15,45,7.90
2018,03,23,15,46,10.30
2018,03,23,15,47,11.80
2018,03,23,15,48,11.90
2018,03,23,15,49,8.30
2018,03,23,15,50,8.90
2018,03,23,15,51,6.80
2018,03,23,15,52,9.30
2018,03,23,15,53,8.20
2018,03,23,15,54,10.40
2018,03,23,15,55,12.60
2018,03,23,15,56,7.60
2018,03,23,15,57,3.10
2018,03,23,15,58,6.00
2018,03,23,15,59,7.30
2018,03,23,16,00,5.10
2018,03,23,16,01,3.70
2018,03,23,16,02,4.40
2018,03,23,16,03,5.70
2018,03,23,16,04,7.50
2018,03,23,16,05,4.90
2018,03,23,16,06,1.00
2018,03,23,16,07,1.20
2018,03,23,16,08,3.50
2018,03,23,16,09,2.70
2018,03,23,16,10,4.90
2018,03,23,16,11,5.10
2018,03,23,16,12,4.80
2018,03,23,16,13,7.20
2018,03,23,16,14,7.40
2018,03,23,16,15,11.00
2018,03,23,16,16,13.50
2018,03,23,16,17,14.40
2018,03,23,16,18,16.00
2018,03,23,16,19,11.50
2018,03,23,16,20,8.40
2018,03,23,16,21,6.40
2018,03,23,16,22,6.60
2018,03,23,16,23,5.70
2018,03,23,16,24,7.50
2018,03,23,16,25,7.10
2018,03,23,16,26,5.60
2018,03,23,16,27,6.90
2018,03,23,16,28,7.20
2018,03,23,16,29,9.10
2018,03,23,16,30,8.70
2018,03,23,16,31,8.00
2018,03,23,16,32,13.20
2018,03,23,16,33,11.80
2018,03,23,16,34,6.80
2018,03,23,16,35,11.00
2018,03,23,16,36,10.00
2018,03,23,16,37,8.80
2018,03,23,16,38,7.70
2018,03,23,16,39,6.20
2018,03,23,16,40,3.70
2018,03,23,16,41,4.20
2018,03,23,16,42,8.50
2018,03,23,16,43,6.00
2018,03,23,16,44,4.20
2018,03,23,16,45,4.60
2018,03,23,16,46,2.30
2018,03,23,16,47,4.00
2018,03,23,16,48,1.50
2018,03,23,16,49,2.20
2018,03,23,16,50,3.50
2018,03,23,16,51,7.00
2018,03,23,16,52,6.40
2018,03,23,16,53,4.30
2018,03,23,16,54,1.60
2018,03,23,16,55,0.00
2018,03,23,16,56,0.00
2018,03,23,16,57,0.00
2018,03,23,16,58,2.70
2018,03,23,16,59,10.30
2018,03,23,17,00,30.40
2018,03,23,17,01,93.40
2018,03,23,17,02,97.60
2018,03,23,17,03,15.90
2018,03,23,17,04,0.80
2018,03,23,17,05,16.90
2018,03,23,17,06,20.50
2018,03,23,17,07,5.80
2018,03,23,17,08,3.20
2018,03,23,17,09,3.70
2018,03,23,17,10,0.10
2018,03,23,17,11,0.00
2018,03,23,17,12,0.00
2018,03,23,17,13,2.20
2018,03,23,17,14,2.50
2018,03,23,17,15,2.50
2018,03,23,17,16,0.00
2018,03,23,17,17,0.00
2018,03,23,17,18,1.70
2018,03,23,17,19,5.40
2018,03,23,17,20,5.80
2018,03,23,17,21,3.10
2018,03,23,17,22,1.50
2018,03,23,17,23,0.00
2018,03,23,17,24,0.00
2018,03,23,17,25,0.00
2018,03,23,17,26,0.00
2018,03,23,17,27,0.00
2018,03,23,17,28,1.40
2018,03,23,17,29,0.00
2018,03,23,17,30,1.10
2018,03,23,17,31,0.10
2018,03,23,17,32,0.00
2018,03,23,17,33,0.00
2018,03,23,17,34,2.30
2018,03,23,17,35,4.10
2018,03,23,17,36,6.30
2018,03,23,17,37,6.60
2018,03,23,17,38,6.80
2018,03,23,17,39,5.20
2018,03,23,17,40,5.00
2018,03,23,17,41,5.00
2018,03,23,17,42,2.50
2018,03,23,17,43,2.50
2018,03,23,17,44,2.70
2018,03,23,17,45,3.30
2018,03,23,17,46,1.80
2018,03,23,17,47,2.70
2018,03,23,17,48,3.00
2018,03,23,17,49,2.40
2018,03,23,17,50,4.00
2018,03,23,17,51,1.70
2018,03,23,17,52,5.70
2018,03,23,17,53,4.80
2018,03,23,17,54,6.20
2018,03,23,17,55,6.00
2018,03,23,17,56,7.40